Home > Weather > Gainesville > Past weeks

Flag for U.S.A. Weather for the Past 2 Weeks in Gainesville, Florida, U.S.A.

Now
48 °F

Sunny.


Feels Like: 43 °F
Forecast: 38 / 54 °F
Wind: 13 mph from Northwest

Location: Gainesville Regional Airport

Current Time: Feb 9, 2016 at 11:20:20 AM

Latest Report: Feb 9, 2016 at 9:53 AM


Visibility: 10 mi

Pressure: 30.03 "Hg

Humidity: 33%

Dew point: 20 °F

Location of GainesvilleLocation

Historic Weather in Gainesville — Graph

°F

Gainesville Temperature Yesterday

Maximum temperature yesterday: 63 °F (at 12:53 PM)
Minimum temperature yesterday: 34 °F (at 1:53 AM)
Average temperature yesterday: 50 °F

High & Low Weather Summary for the Past Weeks

 TemperatureHumidityPressure
High82 °F (Feb 2, 2:53 PM)100% (Jan 27, 2:53 AM)30.33 "Hg (Jan 27, 2:53 AM)
Low34 °F (Feb 8, 1:53 AM)27% (Jan 29, 3:53 PM)29.77 "Hg (Jan 28, 2:53 PM)
Average56 °F76%30.07 "Hg
* Reported Jan 25 9:53 AM — Feb 9 9:53 AM, Gainesville, Weather by CustomWeather, © 2016

Note: Actual official high and low records may vary slightly from our data, if they occured in-between our weather recording intervals... More about our weather records

Advertising

Gainesville Weather History for the Previous 24 Hours

 ConditionsComfort  
Time TempWeatherWind HumidityBarometerVisibility
9:53 AM
Tue, Feb 9
48 °FSunny.13 mph33%30.03 "Hg10 mi
8:53 AM45 °FSunny.20 mph38%30.03 "Hg10 mi
7:53 AM41 °FSunny.9 mph51%30.02 "Hg10 mi
6:53 AM41 °FClear.9 mph49%30.02 "Hg10 mi
5:53 AM42 °FClear.12 mph47%30.00 "Hg10 mi
4:53 AM44 °FClear.9 mph49%29.96 "Hg10 mi
3:53 AM46 °FOvercast.10 mph48%29.95 "Hg10 mi
2:53 AM49 °FOvercast.14 mph46%29.93 "Hg10 mi
1:53 AM50 °FOvercast.10 mph46%29.92 "Hg10 mi
12:53 AM52 °FOvercast.12 mph49%29.90 "Hg10 mi
11:53 PM
Mon, Feb 8
53 °FOvercast.8 mph55%29.88 "Hg10 mi
10:53 PM54 °FPassing clouds.18 mph53%29.86 "Hg10 mi
9:53 PM56 °FMostly cloudy.20 mph46%29.85 "Hg10 mi
8:53 PM57 °FOvercast.21 mph58%29.83 "Hg10 mi
7:53 PM58 °FOvercast.9 mph62%29.81 "Hg10 mi
6:53 PM58 °FPassing clouds.13 mph62%29.82 "Hg10 mi
5:53 PM59 °FBroken clouds.15 mph62%29.85 "Hg10 mi
4:53 PM59 °FScattered clouds.15 mph60%29.85 "Hg10 mi
3:53 PM61 °FScattered clouds.21 mph52%29.85 "Hg10 mi
2:53 PM62 °FBroken clouds.18 mph46%29.88 "Hg10 mi
1:53 PM61 °FPartly sunny.23 mph46%29.91 "Hg10 mi
12:53 PM63 °FPassing clouds.17 mph35%29.97 "Hg10 mi
11:53 AM60 °FSunny.17 mph33%30.02 "Hg10 mi
Weather by CustomWeather, © 2016

See weather overviewHow to use our weather pages